Погода в Ореле

Погода в Ореле : погода сейчас, прогноз погоды и архив. Всё, что Вы хотите узнать о погоде в Ореле!

Хотите узнать прогноз погоды в Ореле? Тогда Вам сюда: Погода в Ореле

Поиск расширенной информации на нашем сайте:

Другие новости

Новости СМИ2

Главная страница сайта

Новости сайта

03.07.2017

Напоминаем, что на нашем специализированном сайте Метеоцентр.Азия вы можете получить высокодетализированные автоматические прогнозы погоды по пунктам России, СНГ и мира в авиационном формате (включающие направление и скорость ветра, видимость, явления погоды, количество и форму облачности, нижнюю и верхнюю границу облачности).


Погода в Ореле - сегодня

Время (UTC), дата Ветер
(°,м/с) 
Видим.   Явления Облачность Т
(°С)
Тd
(°С)
f(%) Тe
(°С)
Pmin
(гПа)
dP
(гПа)
Po
(мм)
O2
(г/м3)
Тmin Tmax R s Состояние
почвы
09 14.04.18 070 (В) 10 км    ясно 
+10.1 -5.4 33 +10  1031.5  0.4  756  294           
12 14.04.18 130 (ЮВ) 10 км    ясно 
+11.8 -6.4 27 +12  1030.8  -0.6  755  292           
15 14.04.18 110 (В) 10 км    ясно 
+11.2 -3.8 35 +11  1029.7  -1  754  292           
21 14.04.18 160 (Ю) 10 км    ясно 
+4.6 -2.1 62 +4  1029.9  -0.4  754  299           
00 15.04.18 150 (ЮВ) 10 км    ясно 
+2.3 -2.6 70 +3  1030  -0.1  754  302           
09 15.04.18 130 (ЮВ) 10 км    ясно 
+13.9 -3.3 30 +15  1026.7  -1.1  752  289           
12 15.04.18 230 (ЮЗ) 10 км    8/0 средняя, верхняя 
[Ac trans|Ci fib]
+15.9 -1.9 29 +17  1024.4  -2  751  286           
21 15.04.18 230 (ЮЗ) 10 км    8/3 600 м средняя 
[Sc|Ac trans]
+9 +3.8 70 +10  1022.8  -0.1  749  292           
00 16.04.18 080 (В) 10 км    5/0 средняя, верхняя 
[Ac trans|Ci fib]
+6.5 +4.2 85 +7  1022.6  -0.4  749  294           
09 16.04.18 250 (З) 10 км    10/0 верхняя 
[Cs]
+17.5 +6.1 47 +18  1021.7  -0.3  749  283           
12 16.04.18 240 (ЮЗ) 10 км    10/1 600 м верхняя 
[Cu hum|Cs]
+20.7 +5.3 36 +21  1020.3  -1.2  748  279           
15 16.04.18 250 (З) 10 км    9/3 600 м верхняя 
[Cu hum|Ci sp]
+19.3 +6.5 43 +20  1019.6  -0.9  747  280           
21 16.04.18 160 (Ю) 10 км    8/4 600 м верхняя 
[Sc|Ci fib]
+11 +6.8 75 +12  1018.5  -0.3  746  288           
00 17.04.18 170 (Ю) 10 км    8/0 средняя, верхняя 
[Ac trans|Ci fib]
+9.6 +6.4 80 +10  1018.3  -0.3  746  289           
09 17.04.18 220 (ЮЗ) 10 км    10/0 средняя 
[As trans]
+20.2 +6.5 41 +20  1017.6  746  279           
12 17.04.18 230 (ЮЗ) 10 км    10/0 средняя 
[As trans]
+20 +5.6 39 +20  1017.3  -0.3  746  279           
15 17.04.18 230 (ЮЗ) 10 км    10/4 600 м средняя 
[Sc|As op]
+18.2 +0.2 30 +19  1016.3  -1.1  745  281           
21 17.04.18 210 (ЮЗ) 10 км    10/4 600 м средняя 
[Sc|As op]
+13 -0.7 39 +13  1016  -0.8  744  286           
09 18.04.18 310 (СЗ) 10 км  {ливн. осадки}  10/10 600 м кучево-дожд. 
[Cb calv]
+10.5 +8.6 88 +11  1012.4  0.4  742  286           
21 18.04.18 290 (З) 10 км    10/10 600 м кучево-дожд. 
[Cb calv]
+8.2 +4.6 78 +8  1010.4  -2.2  740  289           
09 19.04.18 330 (СЗ) 10 км  слаб. ливневой дождь  10/10 300 м кучево-дожд. 
[Cb calv]
+7.6 +6.5 93 +7  1004.1  -0.4  735  287           
21 19.04.18 330 (СЗ) 10 км    10/0 средняя 
[As op]
+8.4 +4.3 75 +9  1008.6  2.1  739  288           
00 20.04.18 350 (С) 10 км    8/0 средняя, верхняя 
[Ac trans|Ci fib]
+7.8 +2.3 68 +7  1009.1  0.5  739  289           
15 20.04.18 340 (С) 10 км    8/5 600 м средняя 
[Sc|Ac trans]
+14.3 -0.7 36 +14  1014.8  0.4  744  285           
21 20.04.18 250 (З) 10 км    6/0 верхняя 
[Ci fib]
+7.6 -0.7 56 +9  1015.4  -0.4  744  292           
Время (UTC), дата Ветер
(°,м/с) 
Видим.   Явления Облачность Т
(°С)
Тd
(°С)
f(%) Тe
(°С)
Pmin
(гПа)
dP
(гПа)
Po
(мм)
O2
(г/м3)
Тmin Tmax R s Состояние
почвы

Для получения пояснительной информации подведите курсор к названию столбца.

ПОГОДА в Ореле - архив

Всё, что Вы хотите узнать о погоде в Ореле - удобно и подробно!

Выберите нужную дату (начиная с 1 января 2015* года) и нажмите кнопку "Найти".
Будут отображены архивные сводки погоды по пункту Орел, начиная с указанной даты.


Отображать данные в формате CSV (для использования в таблицах Excel)


Внимание! Наш архив погоды предназначен исключительно для личного некоммерческого использования в познавательных целях. Если Вам необходимы официальные справки о состоянии погоды (для производственных, юридических, коммерческих и т.п. целей), обращайтесь в органы Росгидромета.

*Примечание: данная дата относится к архиву по метеостанциям СССР (Россия, СНГ, Балтия).
Архив по метеостанциям Зарубежной Европы и Азии (кроме Китая) хранится 10 дней, по другим регионам земного шара (Китай, Африка, Америка, Австралия, Океания) - 1 день.

Орел - район местоположения метеостанции


Название, широта, долгота, высота метеостанции:
Орел 52.9°ш. 36°д. 196 м над ур. моря [Российская Федерация]

Дополнительная информация

В oтличие oт бoльшинства пoгoдных сайтoв мы публикуем пoдрoбную метеoинфoрмацию в детальнoм прoфессиoнальнoм фoрмате.

Характеристики температуры и влажнoсти вoздуха измеряются на высoте 2 м в тени вдали oт зданий и деревьев.
Скoрoсть ветра измеряется на высoте 10 м (на урoвне рoста челoвека скoрoсть ветра ниже в 1.5-2 раза). Если метеoстанция нахoдится в гoрoде или в лесу, тo скoрoсть ветра занижена на 2-4 м/с пo сравнению с oткрытым местoм. Скoрoсть ветра над акватoриями крупных рек и oзёр, а также на вершинах хoлмoв на 2-5 м/с выше, чем в oбычных услoвиях.
Атмoсфернoе давление в разных тoчках местнoсти мoжет значительнo oтличаться oт давления на метеoстанции, в зависимoсти oт услoвий рельефа (при пoдъёме на 10 м давление пoнижается примернo на 1 мм рт.ст.).